Location: Riverside Cemetery
(38.3047°N, 99.7773°W)
Time: 19:17:19
(UTC+00:00)

ERBS - Pass Details

Date: 19 September 2020
Orbit: 413 x 419 km, 57.0° (Epoch: 22 October)

Event Time Altitude Azimuth Distance (km) Brightness Sun altitude
Exits shadow 10:53:20 54° 303° (WNW) 513 2.4 -18.5°
Maximum altitude 10:53:28 55° 315° (NW) 510 2.4 -18.4°
Drops below altitude 10° 10:56:47 10° 34° (NE) 1,506 5.8 -17.8°
Sets 10:58:55 0° 39° (NE) 2,374 7.0 -17.4°
